This demonstration page uses our WeatherBlox Daily Observations layout. Learn more.

Hourly Observations for February 3, 2021

Temp ( °F °C ) Dew Point ( °F °C ) Humidity (%) Winds ( mph kmh ) Pressure ( in mb ) Visibility ( mi km ) Precip ( " mm )
12:15 am 00:15 Cloudy 32 0 23 -5 69 69 NNW 18 30 29.64 1004 10 16.0934 0 0
12:35 am 00:35 Cloudy 32 0 23 -5 69 69 NNW 20 31 29.64 1004 10 16.0934 0 0
12:55 am 00:55 Cloudy 32 0 25 -4 75 75 NW 20 31 29.64 1004 10 16.0934 0 0
1:15 am 01:15 Cloudy 32 0 27 -3 80 80 NNW 16 26 29.64 1004 10 16.0934 0 0
1:35 am 01:35 Cloudy 32 0 27 -3 80 80 NW 21 33 29.64 1004 10 16.0934 0 0
1:55 am 01:55 Cloudy 32 0 27 -3 80 80 NNW 15 24 29.65 1004 10 16.0934 0 0
2:15 am 02:15 Windy with Snow Likely 32 0 28 -2 87 87 NNW 22 35 29.65 1004 10 16.0934 0 0
2:35 am 02:35 Windy with Snow Likely 32 0 28 -2 87 87 NW 20 31 29.65 1004 10 16.0934 0 0
2:55 am 02:55 Cloudy with Light Wintry Mix 32 0 28 -2 87 87 NW 17 28 29.65 1004 10 16.0934 0 0
3:15 am 03:15 Cloudy 32 0 27 -3 80 80 NW 20 31 29.64 1004 10 16.0934 0 0
3:35 am 03:35 Cloudy with Light Wintry Mix 32 0 27 -3 80 80 NW 22 35 29.65 1004 10 16.0934 0 0
3:55 am 03:55 Cloudy with Light Wintry Mix 32 0 27 -3 80 80 NW 15 24 29.66 1004 10 16.0934 0 0
4:15 am 04:15 Cloudy 32 0 27 -3 80 80 NW 14 22 29.66 1004 10 16.0934 0 0
4:35 am 04:35 Windy with Snow Likely 32 0 27 -3 80 80 NW 20 31 29.66 1004 10 16.0934 0 0
4:55 am 04:55 Cloudy with Light Snow 32 0 28 -2 87 87 NW 13 20 29.67 1005 5 8.0467 0 0
5:15 am 05:15 Cloudy with Light Snow 32 0 28 -2 87 87 NW 9 15 29.67 1005 7 11.26538 0 0
5:35 am 05:35 Cloudy with Light Snow 32 0 28 -2 87 87 NW 9 15 29.67 1005 5 8.0467 0 0
5:55 am 05:55 Cloudy with Light Snow 32 0 28 -2 87 87 NW 8 13 29.68 1005 7 11.26538 0 0
6:15 am 06:15 Cloudy with Light Snow 30 -1 28 -2 93 93 N 7 11 29.68 1005 7 11.26538 0 0
6:35 am 06:35 Cloudy with Light Wintry Mix 32 0 28 -2 87 87 Calm 29.69 1005 10 16.0934 0 0
6:55 am 06:55 Cloudy with Light Snow 32 0 28 -2 87 87 NNW 8 13 29.69 1005 10 16.0934 0 0
7:15 am 07:15 Cloudy with Light Wintry Mix 32 0 28 -2 87 87 NNW 8 13 29.69 1005 10 16.0934 0 0
7:35 am 07:35 Cloudy 32 0 28 -2 87 87 N 5 7 29.69 1005 10 16.0934 0 0
7:55 am 07:55 Cloudy 32 0 25 -4 75 75 NNW 10 17 29.69 1005 10 16.0934 0 0
8:15 am 08:15 Cloudy 32 0 23 -5 69 69 NW 12 19 29.7 1006 10 16.0934 0 0
8:35 am 08:35 Cloudy 32 0 23 -5 69 69 NNW 18 30 29.7 1006 10 16.0934 0 0
8:55 am 08:55 Cloudy 32 0 23 -5 69 69 NNW 21 33 29.7 1006 10 16.0934 0 0
9:15 am 09:15 Cloudy 32 0 23 -5 69 69 NNW 15 24 29.7 1006 10 16.0934 0 0
9:35 am 09:35 Cloudy 34 1 23 -5 65 65 NW 15 24 29.7 1006 10 16.0934 0 0
9:55 am 09:55 Cloudy 34 1 23 -5 65 65 NNW 14 22 29.71 1006 10 16.0934 0 0
10:15 am 10:15 Cloudy 34 1 23 -5 65 65 N 8 13 29.72 1006 10 16.0934 0 0
10:35 am 10:35 Cloudy 34 1 23 -5 65 65 NNW 9 15 29.72 1006 10 16.0934 0 0
10:55 am 10:55 Cloudy 34 1 23 -5 65 65 NNW 16 26 29.72 1006 10 16.0934 0 0
11:15 am 11:15 Cloudy 36 2 23 -5 60 60 NNW 18 30 29.72 1006 10 16.0934 0 0
11:35 am 11:35 Cloudy 36 2 23 -5 60 60 NNW 17 28 29.72 1006 10 16.0934 0 0
11:55 am 11:55 Cloudy 36 2 25 -4 65 65 NNW 12 19 29.71 1006 10 16.0934 0 0
12:15 pm 12:15 Cloudy 37 3 25 -4 60 60 N 9 15 29.71 1006 10 16.0934 0 0
12:35 pm 12:35 Cloudy 37 3 27 -3 65 65 NNW 17 28 29.7 1006 10 16.0934 0 0
12:55 pm 12:55 Cloudy 37 3 27 -3 65 65 NNW 13 20 29.7 1006 10 16.0934 0.01 0.254
1:15 pm 13:15 Cloudy 37 3 27 -3 65 65 N 10 17 29.7 1006 10 16.0934 0 0
1:35 pm 13:35 Mostly Cloudy 39 4 27 -3 61 61 N 10 17 29.7 1006 10 16.0934 0.01 0.254
1:55 pm 13:55 Mostly Cloudy 41 5 28 -2 61 61 NW 18 30 29.68 1005 10 16.0934 0.03 0.762
2:15 pm 14:15 Mostly Cloudy 41 5 28 -2 61 61 NW 21 33 29.69 1006 10 16.0934 0.02 0.508
2:35 pm 14:35 Partly Cloudy 41 5 28 -2 61 61 NW 25 41 29.69 1006 10 16.0934 0.05 1.27
2:55 pm 14:55 Partly Cloudy 41 5 28 -2 61 61 NW 24 39 29.7 1006 10 16.0934 0.07 1.778
3:15 pm 15:15 Partly Cloudy 39 4 28 -2 65 65 NNW 22 35 29.72 1006 10 16.0934 0.01 0.254
3:35 pm 15:35 Partly Cloudy 39 4 27 -3 61 61 NNW 25 41 29.72 1006 10 16.0934 0.03 0.762
3:55 pm 15:55 Partly Cloudy 39 4 27 -3 61 61 NW 24 39 29.73 1007 10 16.0934 0.04 1.016
4:15 pm 16:15 Partly Cloudy 39 4 27 -3 61 61 NNW 17 28 29.74 1007 10 16.0934 0.01 0.254
4:35 pm 16:35 Partly Cloudy 39 4 27 -3 61 61 NW 21 33 29.75 1007 10 16.0934 0.01 0.254
4:55 pm 16:55 Partly Cloudy 39 4 27 -3 61 61 NW 15 24 29.76 1008 10 16.0934 0.01 0.254
5:15 pm 17:15 Sunny 39 4 27 -3 61 61 NW 15 24 29.77 1008 10 16.0934 0 0
5:35 pm 17:35 Clear 37 3 27 -3 65 65 NW 14 22 29.78 1008 10 16.0934 0 0
5:55 pm 17:55 Clear 37 3 27 -3 65 65 NW 14 22 29.79 1009 10 16.0934 0 0
6:15 pm 18:15 Clear 37 3 27 -3 65 65 NW 23 37 29.79 1009 10 16.0934 0 0
6:35 pm 18:35 Clear 36 2 27 -3 70 70 NW 22 35 29.8 1009 10 16.0934 0 0
6:55 pm 18:55 Clear 36 2 25 -4 65 65 NW 21 33 29.82 1010 10 16.0934 0 0
7:15 pm 19:15 Clear 36 2 25 -4 65 65 WNW 15 24 29.83 1010 10 16.0934 0 0
7:35 pm 19:35 Clear 36 2 23 -5 60 60 WNW 10 17 29.84 1010 10 16.0934 0 0
7:55 pm 19:55 Clear 36 2 23 -5 60 60 WNW 18 30 29.85 1011 10 16.0934 0 0
8:15 pm 20:15 Clear 34 1 23 -5 65 65 WNW 12 19 29.86 1011 10 16.0934 0 0
8:35 pm 20:35 Clear 34 1 21 -6 60 60 WNW 17 28 29.87 1012 10 16.0934 0 0
8:55 pm 20:55 Clear 34 1 21 -6 60 60 WNW 18 30 29.87 1012 10 16.0934 0 0
9:15 pm 21:15 Clear 34 1 21 -6 60 60 WNW 15 24 29.88 1012 10 16.0934 0 0
9:35 pm 21:35 Clear 32 0 21 -6 64 64 WNW 17 28 29.88 1012 10 16.0934 0 0
9:55 pm 21:55 Clear 32 0 21 -6 64 64 WNW 18 30 29.89 1012 10 16.0934 0 0
10:15 pm 22:15 Clear 32 0 21 -6 64 64 WNW 18 30 29.9 1013 10 16.0934 0 0
10:35 pm 22:35 Clear 32 0 19 -7 60 60 NW 17 28 29.91 1013 10 16.0934 0 0
10:55 pm 22:55 Clear 32 0 19 -7 60 60 NW 21 33 29.92 1013 10 16.0934 0 0
11:15 pm 23:15 Clear 32 0 19 -7 60 60 NW 20 31 29.92 1013 10 16.0934 0 0
11:35 pm 23:35 Clear 32 0 19 -7 60 60 NW 20 31 29.93 1014 10 16.0934 0 0
11:55 pm 23:55 Clear 32 0 19 -7 60 60 NW 15 24 29.93 1014 10 16.0934 0 0

Powered by AerisWeather